sat.trackr.live / text

‹ back to catalog

STARLINK-11084 [DTC]

NORAD 59717 · 2024-088K

PAYLOAD ACTIVE UNKNOWN

§ Identity

Operator
Country
US
Launch date
2024-05-10
Launch site
AFWTR
Launch vehicle
Mass (kg)
RCS (m²)

Purposes: comms

External: N2YO · Heavens-Above · Gunter

§ Orbital elements

Epoch: 2026-05-25T03:40:02.676000Z

Period
91.74 min
Inclination
53.1574°
Eccentricity
0.0000894
Mean motion
15.69703738 rev/d
Perigee alt
359.1 km
Apogee alt
360.3 km
Semi-major
6,737.9 km
B*
-1.2133e-5
RAAN
309.1851°
Arg perigee
11.1512°
Mean anomaly
348.9526°
Rev number
11,828

§ Raw data

STARLINK-11084 [DTC]1 59717U 24088K   26145.15280875 -.00002057  00000+0 -12133-4 0  99942 59717  53.1574 309.1851 0000894  11.1512 348.9526 15.69703738118281

JSON: /api/v1/satellites/59717 · /tle

For live sub-satellite position, see the globe view (requires WebGL).

§ Visibility from observer

Set your observer location to see the next 7 days of passes ≥ 10°. The values pass through the URL so the page stays shareable.

No JS? Fill the form by hand. The geolocation button needs JavaScript.